Regional Weather Roundup
Issued by NWS

Home | Current Version | Previous Version | Graphics & Text | Print | Product List | Glossary On
Versions: 1 2 3 4 5 6 7 8 9 10 11 12 13 14 15 16 17 18 19 20 21 22 23 24 25 26 27 28 29 30 31 32 33 34 35 36 37 38 39 40 41 42 43 44 45 46 47 48 49 50
000
ASUS43 KIND 240059
RWRIN

WEATHER ROUNDUP FOR INDIANA
NATIONAL WEATHER SERVICE INDIANAPOLIS IN
800 PM EST TUE JAN 23 2018

NOTE: "FAIR" INDICATES FEW OR NO CLOUDS BELOW 12,000 FEET WITH NO
SIGNIFICANT WEATHER AND/OR OBSTRUCTIONS TO VISIBILITY.

* - STATION DOES NOT REPORT WEATHER SUCH AS PRECIPITATION OR FOG.

+ - STATION NOT QUALITY CONTROLLED BY THE NATIONAL WEATHER SERVICE.
    USE DATA WITH CAUTION...ESPECIALLY DEWPOINT AND RELATIVE
    HUMIDITY OBSERVATIONS.

INZ001>003-010>013-019-020-240200-
NORTHWEST INDIANA

CITY           SKY/WX    TMP DP  RH WIND       PRES   REMARKS
GARY /AIRPORT/ CLOUDY    32  25  74 NW12      30.10R WCI  23
KNOX *+        CLOUDY    30  27  86 NW14      30.07R WCI  20
MONTICELLO +   CLOUDY    30  24  79 NW16      30.07R WCI  19

$$

LMZ046-743>745-240200-
SOUTHERN LAKE MICHIGAN

STATION/POSITION TIME  TEMP    WIND        PRES    WAVE
                       AIR SEA DIR/SP/G            HT
                 (UTC) (F)     (DEG/KT/KT) (MB)    (FT)
BURNS HARBOR     0040   30     320/ 14/ 20 1019.0R
MICHIGAN CITY    0030   30     300/ 17/ 19   N/A

$$

INZ004-005-014>016-021>024-240200-
NORTH CENTRAL INDIANA

CITY           SKY/WX    TMP DP  RH WIND       PRES   REMARKS
ELKHART        CLOUDY    30  27  86 NW12G17   30.01R WCI  21
GOSHEN         CLOUDY    30  25  81 NW20G25   30.01R WCI  17
SOUTH BEND     CLOUDY    29  25  85 NW13      30.04R WCI  19

$$

INZ006>009-017-018-025>027-240200-
NORTHEAST INDIANA

CITY           SKY/WX    TMP DP  RH WIND       PRES   REMARKS
FORT WAYNE     CLOUDY    32  26  78 W15       30.01R WCI  22
KENDALLVILLE + CLOUDY    30  27  88 NW10G23   29.97R WCI  21

$$

INZ028-029-035-036-043>045-051>053-240200-
WEST CENTRAL INDIANA

CITY           SKY/WX    TMP DP  RH WIND       PRES   REMARKS
GREENCASTLE +  CLOUDY    32  27  80 NW9       30.10R WCI  24
LAFAYETTE      CLOUDY    31  26  82 NW10      30.09R WCI  22
TERRE HAUTE    CLOUDY    32  28  85 NW7       30.13R WCI  26

$$

INZ030>032-037>040-046>048-054>057-064-065-240200-
CENTRAL INDIANA

CITY           SKY/WX    TMP DP  RH WIND       PRES   REMARKS
COLUMBUS       LGT RAIN  32  30  93 W12       30.09R FOG     WCI  23
INDIANAPOLIS   FLURRIES  31  28  89 W14       30.08R WCI  21
-EAGLE CREEK   CLOUDY    44  27  51 NW17      30.07R
MT COMFORT *+  CLOUDY    30  30 100 NW13G18   30.07R WCI  20
SHELBYVILLE    CLOUDY    33  29  85 W12       30.06R WCI  24

$$

INZ033-034-041-042-049-050-058-059-240200-
EAST CENTRAL INDIANA

CITY           SKY/WX    TMP DP  RH WIND       PRES   REMARKS
MUNCIE         CLOUDY    33  27  78 NW15G25   30.03R WCI  23
RICHMOND +     CLOUDY    32  32 100 W16       30.01R WCI  21

$$

INZ060-061-067>069-081>083-085>088-240200-
SOUTHWEST INDIANA

CITY           SKY/WX    TMP DP  RH WIND       PRES   REMARKS
EVANSVILLE     CLOUDY    35  28  75 NW6       30.20R WCI  30
HUNTINGBURG +  CLOUDY    34  28  79 NW13G21   30.17R WCI  25

$$

INZ062-063-066-070>080-084-089>092-240200-
SOUTH CENTRAL AND SOUTHEAST INDIANA

CITY           SKY/WX    TMP DP  RH WIND       PRES   REMARKS
BLOOMINGTON    CLOUDY    32  26  78 W10       30.10R WCI  24
FRENCH LICK *+ CLOUDY    32  28  86 W3G16     30.14R
SEYMOUR +      CLOUDY    34  30  86 W14       30.11R WCI  24

$$




USA.gov is the U.S. government's official web portal to all federal, state and local government web resources and services.